Погода Сытомино

Погода Сытомино : погода сейчас, прогноз погоды и архив. Всё, что Вы хотите узнать о погоде Сытомино!

Поиск расширенной информации на нашем сайте:

Полезная информация: Курсы ораторского искусства и мастерства курсы ораторского мастерства москва.

Другие новости

Новости СМИ2

Главная страница сайта

Новости сайта

03.07.2017

Напоминаем, что на нашем специализированном сайте Метеоцентр.Азия вы можете получить высокодетализированные автоматические прогнозы погоды по пунктам России, СНГ и мира в авиационном формате (включающие направление и скорость ветра, видимость, явления погоды, количество и форму облачности, нижнюю и верхнюю границу облачности).

Рекомендуем: художник

Погода Сытомино - сегодня

Время (UTC), дата Ветер
(°,м/с) 
Видим.   Явления Облачность Т
(°С)
Тd
(°С)
f(%) Тe
(°С)
Pmin
(гПа)
dP
(гПа)
Po
(мм)
O2
(г/м3)
Тmin Tmax R s Состояние
почвы
00 18.07.17 010 (С) 10 км    3/0 верхняя 
[Ci fib]
+14.3 +10.9 80 +17  1016.9  0.7  760  289           
03 18.07.17 040 (СВ) 10 км    ясно 
+22.4 +13.3 56 +28  1017.1  0.4  760  280  +13.6        влажная 
06 18.07.17 340 (С) 10 км    4/4 600 м 
[Cu med, cong]
+25.9 +10.2 37 +27  1016.5  -0.6  760  278           
09 18.07.17 320 (СЗ) 10 км    8/5 600 м средняя 
[Cu med, cong|Ac lent]
+26.5 +9.4 34 +27  1015.7  -0.8  759  277           
12 18.07.17 360 (С) 10 км    9/4 600 м средняя, верхняя 
[Cu med, cong|Ac lent|Ci sp]
+26.5 +8.8 33 +27  1014.9  -0.8  758  277           
15 18.07.17 350 (С) 10 км  в посл. час ливневой дождь  9/4 600 м кучево-дожд., средняя, верхняя 
[Cb cap|Ac lent|Ci sp]
+22.3 +13.2 56 +28  1014.5  -0.4  758  280    +27.3  0.0     
18 18.07.17 280 (З) 10 км  гроза, ливневой дождь  10/8 600 м кучево-дожд., средняя, верхняя 
[Cb cap|Ac lent|Ci sp]
+17.1 +15.3 89 +28  1014.6  758  284           
21 18.07.17 310 (СЗ) 10 км  {гроза, ливн. осадки}  4/0 средняя, верхняя 
[Ac lent|Ci fib]
+16 +13.9 87 +24  1013.7  -0.9  757  285           
00 19.07.17 350 (С) 10 км  {гроза, ливн. осадки}  8/1 600 м средняя, верхняя 
[Sc|Ac trans|Ci sp]
+15.5 +13.6 88 +23  1013.5  -0.2  757  286           
03 19.07.17 050 (СВ) 10 км    8/0 средняя, верхняя 
[Ac trans|Ci fib]
+21.8 +14.2 62 +29  1013.7  0.3  757  280  +14.5    0.8    влажная 
06 19.07.17 060 (СВ) 10 км    8/1 600 м средняя, верхняя 
[Cu med, cong|Ac lent|Ci fib]
+23.8 +11.1 45 +26  1013.9  0.2  758  279           
09 19.07.17 040 (СВ) 10 км    8/6 600 м верхняя 
[Cu med, cong|Ci fib]
+24.9 +9.8 38 +26  1013  -0.9  757  278           
12 19.07.17 050 (СВ) 10 км    10/4 600 м средняя, верхняя 
[Cu hum|Ac lent|Ci sp]
+23.9 +10.4 43 +25  1012.7  -0.3  757  279           
15 19.07.17 120 (ЮВ) 10 км    9/5 600 м кучево-дожд., средняя, верхняя 
[Cb cap|Ac lent|Ci sp]
+23 +11 47 +25  1013.1  0.3  757  279    +25.7       
18 19.07.17 360 (С) 2{11}  10 км  {ливн. осадки}  10/3 600 м кучево-дожд., средняя, верхняя 
[Cb cap|Ac lent|Ci sp]
+17 +13.3 79 +24  1012.8  -0.4  757  284           
21 19.07.17 020 (С) 10 км    3/0 средняя 
[Ac lent]
+15.1 +13 87 +21  1013.2  0.3  757  286           
00 20.07.17 050 (СВ) 10 км    ясно 
+15.4 +13.4 88 +23  1013.5  0.3  757  286           
03 20.07.17 240 (ЮЗ) 10 км    10/0 верхняя 
[Ci sp]
+20.8 +15.3 71 +30  1014  0.6  758  280  +13.5       
06 20.07.17 200 (Ю) 10 км    3/1 600 м верхняя 
[Cu hum|Ci fib]
+24.1 +13.1 50 +29  1013.9  758  278           
09 20.07.17 210 (ЮЗ) 10 км    5/3 600 м верхняя 
[Cu med, cong|Ci fib]
+26.7 +10.9 37 +29  1013.4  -0.5  757  276           
12 20.07.17 210 (ЮЗ) 10 км    8/3 600 м верхняя 
[Cu med, cong|Ci fib]
+27.4 +10.4 35 +29  1012.4  -0.9  757  275           
15 20.07.17 250 (З) 10 км    10/3 600 м кучево-дожд., средняя, верхняя 
[Cb cap|Ac lent|Ci sp]
+25.2 +13.7 49 +31  1013  0.5  757  277    +27.6       
18 20.07.17 030 (СВ) 10 км    10/0 средняя, верхняя 
[Ac lent|Ci fib]
+18.1 +13.9 76 +27  1013.6  0.5  757  283           
21 20.07.17 020 (С) 10 км    10/0 средняя, верхняя 
[Ac trans|Ci fib]
+16.5 +13.1 80 +22  1013.9  0.2  757  285           
00 21.07.17 020 (С) 10 км    8/0 средняя, верхняя 
[Ac lent|Ci fib]
+15.4 +13.1 86 +22  1014.3  0.4  758  286           
Время (UTC), дата Ветер
(°,м/с) 
Видим.   Явления Облачность Т
(°С)
Тd
(°С)
f(%) Тe
(°С)
Pmin
(гПа)
dP
(гПа)
Po
(мм)
O2
(г/м3)
Тmin Tmax R s Состояние
почвы

Для получения пояснительной информации подведите курсор к названию столбца.

ПОГОДА Сытомино - архив

Всё, что Вы хотите узнать о погоде Сытомино - удобно и подробно!

Выберите нужную дату (начиная с 1 января 2015* года) и нажмите кнопку "Найти".
Будут отображены архивные сводки погоды по пункту Сытомино, начиная с указанной даты.


Отображать данные в формате CSV (для использования в таблицах Excel)


Внимание! Наш архив погоды предназначен исключительно для личного некоммерческого использования в познавательных целях. Если Вам необходимы официальные справки о состоянии погоды (для производственных, юридических, коммерческих и т.п. целей), обращайтесь в органы Росгидромета.

*Примечание: данная дата относится к архиву по метеостанциям СССР (Россия, СНГ, Балтия).
Архив по метеостанциям Зарубежной Европы и Азии (кроме Китая) хранится 10 дней, по другим регионам земного шара (Китай, Африка, Америка, Австралия, Океания) - 1 день.

Сытомино - район местоположения метеостанции


Название, широта, долгота, высота метеостанции:
Сытомино 61.3°ш. 71.3°д. 33 м над ур. моря [Российская Федерация]

Дополнительная информация

В oтличие oт бoльшинства пoгoдных сайтoв мы публикуем пoдрoбную метеoинфoрмацию в детальнoм прoфессиoнальнoм фoрмате.

Характеристики температуры и влажнoсти вoздуха измеряются на высoте 2 м в тени вдали oт зданий и деревьев.
Скoрoсть ветра измеряется на высoте 10 м (на урoвне рoста челoвека скoрoсть ветра ниже в 1.5-2 раза). Если метеoстанция нахoдится в гoрoде или в лесу, тo скoрoсть ветра занижена на 2-4 м/с пo сравнению с oткрытым местoм. Скoрoсть ветра над акватoриями крупных рек и oзёр, а также на вершинах хoлмoв на 2-5 м/с выше, чем в oбычных услoвиях.
Атмoсфернoе давление в разных тoчках местнoсти мoжет значительнo oтличаться oт давления на метеoстанции, в зависимoсти oт услoвий рельефа (при пoдъёме на 10 м давление пoнижается примернo на 1 мм рт.ст.).